Year,Month,Day,Hour,Minute,Value (Times are PST for temperature in C)
2020,04,13,00,00,4.50
2020,04,13,00,01,4.50
2020,04,13,00,02,4.50
2020,04,13,00,03,4.50
2020,04,13,00,04,4.60
2020,04,13,00,05,4.60
2020,04,13,00,06,4.50
2020,04,13,00,07,4.60
2020,04,13,00,08,4.50
2020,04,13,00,09,4.50
2020,04,13,00,10,4.50
2020,04,13,00,11,4.50
2020,04,13,00,12,4.50
2020,04,13,00,13,4.50
2020,04,13,00,14,4.50
2020,04,13,00,15,4.50
2020,04,13,00,16,4.50
2020,04,13,00,17,4.50
2020,04,13,00,18,4.50
2020,04,13,00,19,4.50
2020,04,13,00,20,4.50
2020,04,13,00,21,4.50
2020,04,13,00,22,4.50
2020,04,13,00,23,4.50
2020,04,13,00,24,4.50
2020,04,13,00,25,4.50
2020,04,13,00,26,4.50
2020,04,13,00,27,4.40
2020,04,13,00,28,4.40
2020,04,13,00,29,4.40
2020,04,13,00,30,4.40
2020,04,13,00,31,4.40
2020,04,13,00,32,4.40
2020,04,13,00,33,4.40
2020,04,13,00,34,4.40
2020,04,13,00,35,4.40
2020,04,13,00,36,4.30
2020,04,13,00,37,4.30
2020,04,13,00,38,4.30
2020,04,13,00,39,4.30
2020,04,13,00,40,4.30
2020,04,13,00,41,4.30
2020,04,13,00,42,4.30
2020,04,13,00,43,4.30
2020,04,13,00,44,4.30
2020,04,13,00,45,4.30
2020,04,13,00,46,4.30
2020,04,13,00,47,4.30
2020,04,13,00,48,4.30
2020,04,13,00,49,4.30
2020,04,13,00,50,4.40
2020,04,13,00,51,4.40
2020,04,13,00,52,4.40
2020,04,13,00,53,4.40
2020,04,13,00,54,4.40
2020,04,13,00,55,4.40
2020,04,13,00,56,4.40
2020,04,13,00,57,4.50
2020,04,13,00,58,4.50
2020,04,13,00,59,4.50
2020,04,13,01,00,4.60
2020,04,13,01,01,4.60
2020,04,13,01,02,4.60
2020,04,13,01,03,4.60
2020,04,13,01,04,4.60
2020,04,13,01,05,4.60
2020,04,13,01,06,4.60
2020,04,13,01,07,4.60
2020,04,13,01,08,4.70
2020,04,13,01,09,4.70
2020,04,13,01,10,4.70
2020,04,13,01,11,4.70
2020,04,13,01,12,4.70
2020,04,13,01,13,4.70
2020,04,13,01,14,4.70
2020,04,13,01,15,4.80
2020,04,13,01,16,4.80
2020,04,13,01,17,4.80
2020,04,13,01,18,4.80
2020,04,13,01,19,4.80
2020,04,13,01,20,4.80
2020,04,13,01,21,4.80
2020,04,13,01,22,4.80
2020,04,13,01,23,4.80
2020,04,13,01,24,4.80
2020,04,13,01,25,4.80
2020,04,13,01,26,4.70
2020,04,13,01,27,4.70
2020,04,13,01,28,4.80
2020,04,13,01,29,4.80
2020,04,13,01,30,4.80
2020,04,13,01,31,4.80
2020,04,13,01,32,4.80
2020,04,13,01,33,4.70
2020,04,13,01,34,4.70
2020,04,13,01,35,4.80
2020,04,13,01,36,4.70
2020,04,13,01,37,4.80
2020,04,13,01,38,4.80
2020,04,13,01,39,4.80
2020,04,13,01,40,4.80
2020,04,13,01,41,4.80
2020,04,13,01,42,4.70
2020,04,13,01,43,4.70
2020,04,13,01,44,4.70
2020,04,13,01,45,4.70
2020,04,13,01,46,4.70
2020,04,13,01,47,4.80
2020,04,13,01,48,4.80
2020,04,13,01,49,4.80
2020,04,13,01,50,4.90
2020,04,13,01,51,4.90
2020,04,13,01,52,4.90
2020,04,13,01,53,4.90
2020,04,13,01,54,4.90
2020,04,13,01,55,4.90
2020,04,13,01,56,4.90
2020,04,13,01,57,4.90
2020,04,13,01,58,4.90
2020,04,13,01,59,4.90
2020,04,13,02,00,5.00
2020,04,13,02,01,5.00
2020,04,13,02,02,5.10
2020,04,13,02,03,5.10
2020,04,13,02,04,5.10
2020,04,13,02,05,5.20
2020,04,13,02,06,5.20
2020,04,13,02,07,5.20
2020,04,13,02,08,5.20
2020,04,13,02,09,5.20
2020,04,13,02,10,5.20
2020,04,13,02,11,5.20
2020,04,13,02,12,5.30
2020,04,13,02,13,5.30
2020,04,13,02,14,5.30
2020,04,13,02,15,5.30
2020,04,13,02,16,5.30
2020,04,13,02,17,5.30
2020,04,13,02,18,5.30
2020,04,13,02,19,5.30
2020,04,13,02,20,5.30
2020,04,13,02,21,5.40
2020,04,13,02,22,5.40
2020,04,13,02,23,5.40
2020,04,13,02,24,5.40
2020,04,13,02,25,5.50
2020,04,13,02,26,5.50
2020,04,13,02,27,5.40
2020,04,13,02,28,5.40
2020,04,13,02,29,5.40
2020,04,13,02,30,5.40
2020,04,13,02,31,5.50
2020,04,13,02,32,5.40
2020,04,13,02,33,5.40
2020,04,13,02,34,5.40
2020,04,13,02,35,5.40
2020,04,13,02,36,5.40
2020,04,13,02,37,5.40
2020,04,13,02,38,5.40
2020,04,13,02,39,5.40
2020,04,13,02,40,5.30
2020,04,13,02,41,5.30
2020,04,13,02,42,5.30
2020,04,13,02,43,5.30
2020,04,13,02,44,5.20
2020,04,13,02,45,5.20
2020,04,13,02,46,5.20
2020,04,13,02,47,5.10
2020,04,13,02,48,5.10
2020,04,13,02,49,5.10
2020,04,13,02,50,5.00
2020,04,13,02,51,5.00
2020,04,13,02,52,4.90
2020,04,13,02,53,4.90
2020,04,13,02,54,4.90
2020,04,13,02,55,4.80
2020,04,13,02,56,4.80
2020,04,13,02,57,4.80
2020,04,13,02,58,4.80
2020,04,13,02,59,4.80
2020,04,13,03,00,4.70
2020,04,13,03,01,4.70
2020,04,13,03,02,4.70
2020,04,13,03,03,4.60
2020,04,13,03,04,4.60
2020,04,13,03,05,4.60
2020,04,13,03,06,4.60
2020,04,13,03,07,4.50
2020,04,13,03,08,4.50
2020,04,13,03,09,4.50
2020,04,13,03,10,4.40
2020,04,13,03,11,4.40
2020,04,13,03,12,4.40
2020,04,13,03,13,4.50
2020,04,13,03,14,4.50
2020,04,13,03,15,4.60
2020,04,13,03,16,4.60
2020,04,13,03,17,4.60
2020,04,13,03,18,4.70
2020,04,13,03,19,4.70
2020,04,13,03,20,4.70
2020,04,13,03,21,4.70
2020,04,13,03,22,4.70
2020,04,13,03,23,4.70
2020,04,13,03,24,4.70
2020,04,13,03,25,4.70
2020,04,13,03,26,4.60
2020,04,13,03,27,4.60
2020,04,13,03,28,4.60
2020,04,13,03,29,4.60
2020,04,13,03,30,4.50
2020,04,13,03,31,4.50
2020,04,13,03,32,4.50
2020,04,13,03,33,4.50
2020,04,13,03,34,4.50
2020,04,13,03,35,4.50
2020,04,13,03,36,4.50
2020,04,13,03,37,4.50
2020,04,13,03,38,4.50
2020,04,13,03,39,4.50
2020,04,13,03,40,4.50
2020,04,13,03,41,4.50
2020,04,13,03,42,4.40
2020,04,13,03,43,4.40
2020,04,13,03,44,4.40
2020,04,13,03,45,4.40
2020,04,13,03,46,4.40
2020,04,13,03,47,4.50
2020,04,13,03,48,4.50
2020,04,13,03,49,4.50
2020,04,13,03,50,4.50
2020,04,13,03,51,4.50
2020,04,13,03,52,4.50
2020,04,13,03,53,4.50
2020,04,13,03,54,4.50
2020,04,13,03,55,4.50
2020,04,13,03,56,4.50
2020,04,13,03,57,4.50
2020,04,13,03,58,4.40
2020,04,13,03,59,4.40
2020,04,13,04,00,4.40
2020,04,13,04,01,4.40
2020,04,13,04,02,4.40
2020,04,13,04,03,4.30
2020,04,13,04,04,4.30
2020,04,13,04,05,4.30
2020,04,13,04,06,4.30
2020,04,13,04,07,4.30
2020,04,13,04,08,4.30
2020,04,13,04,09,4.30
2020,04,13,04,10,4.30
2020,04,13,04,11,4.30
2020,04,13,04,12,4.20
2020,04,13,04,13,4.20
2020,04,13,04,14,4.20
2020,04,13,04,15,4.20
2020,04,13,04,16,4.20
2020,04,13,04,17,4.10
2020,04,13,04,18,4.10
2020,04,13,04,19,4.10
2020,04,13,04,20,4.10
2020,04,13,04,21,4.10
2020,04,13,04,22,4.00
2020,04,13,04,23,4.00
2020,04,13,04,24,4.00
2020,04,13,04,25,4.00
2020,04,13,04,26,4.00
2020,04,13,04,27,4.00
2020,04,13,04,28,4.00
2020,04,13,04,29,3.90
2020,04,13,04,30,3.90
2020,04,13,04,31,4.00
2020,04,13,04,32,4.00
2020,04,13,04,33,4.00
2020,04,13,04,34,4.00
2020,04,13,04,35,4.00
2020,04,13,04,36,4.00
2020,04,13,04,37,4.00
2020,04,13,04,38,3.90
2020,04,13,04,39,3.90
2020,04,13,04,40,3.90
2020,04,13,04,41,3.90
2020,04,13,04,42,3.90
2020,04,13,04,43,3.90
2020,04,13,04,44,3.90
2020,04,13,04,45,3.90
2020,04,13,04,46,3.90
2020,04,13,04,47,3.90
2020,04,13,04,48,3.90
2020,04,13,04,49,4.00
2020,04,13,04,50,4.00
2020,04,13,04,51,4.00
2020,04,13,04,52,4.00
2020,04,13,04,53,3.90
2020,04,13,04,54,3.90
2020,04,13,04,55,3.90
2020,04,13,04,56,3.90
2020,04,13,04,57,3.90
2020,04,13,04,58,3.90
2020,04,13,04,59,3.90
2020,04,13,05,00,3.90
2020,04,13,05,01,3.80
2020,04,13,05,02,3.80
2020,04,13,05,03,3.80
2020,04,13,05,04,3.70
2020,04,13,05,05,3.70
2020,04,13,05,06,3.60
2020,04,13,05,07,3.60
2020,04,13,05,08,3.60
2020,04,13,05,09,3.60
2020,04,13,05,10,3.60
2020,04,13,05,11,3.60
2020,04,13,05,12,3.60
2020,04,13,05,13,3.60
2020,04,13,05,14,3.60
2020,04,13,05,15,3.50
2020,04,13,05,16,3.50
2020,04,13,05,17,3.50
2020,04,13,05,18,3.50
2020,04,13,05,19,3.40
2020,04,13,05,20,3.40
2020,04,13,05,21,3.40
2020,04,13,05,22,3.40
2020,04,13,05,23,3.40
2020,04,13,05,24,3.40
2020,04,13,05,25,3.30
2020,04,13,05,26,3.30
2020,04,13,05,27,3.30
2020,04,13,05,28,3.30
2020,04,13,05,29,3.30
2020,04,13,05,30,3.30
2020,04,13,05,31,3.20
2020,04,13,05,32,3.20
2020,04,13,05,33,3.20
2020,04,13,05,34,3.20
2020,04,13,05,35,3.20
2020,04,13,05,36,3.20
2020,04,13,05,37,3.20
2020,04,13,05,38,3.20
2020,04,13,05,39,3.20
2020,04,13,05,40,3.10
2020,04,13,05,41,3.10
2020,04,13,05,42,3.10
2020,04,13,05,43,3.10
2020,04,13,05,44,3.10
2020,04,13,05,45,3.10
2020,04,13,05,46,3.00
2020,04,13,05,47,3.00
2020,04,13,05,48,2.90
2020,04,13,05,49,2.90
2020,04,13,05,50,2.90
2020,04,13,05,51,2.90
2020,04,13,05,52,2.80
2020,04,13,05,53,2.80
2020,04,13,05,54,2.80
2020,04,13,05,55,2.80
2020,04,13,05,56,2.80
2020,04,13,05,57,2.80
2020,04,13,05,58,2.70
2020,04,13,05,59,2.70
2020,04,13,06,00,2.70
2020,04,13,06,01,2.70
2020,04,13,06,02,2.70
2020,04,13,06,03,2.70
2020,04,13,06,04,2.60
2020,04,13,06,05,2.60
2020,04,13,06,06,2.60
2020,04,13,06,07,2.50
2020,04,13,06,08,2.50
2020,04,13,06,09,2.50
2020,04,13,06,10,2.40
2020,04,13,06,11,2.40
2020,04,13,06,12,2.40
2020,04,13,06,13,2.40
2020,04,13,06,14,2.30
2020,04,13,06,15,2.30
2020,04,13,06,16,2.30
2020,04,13,06,17,2.30
2020,04,13,06,18,2.30
2020,04,13,06,19,2.30
2020,04,13,06,20,2.20
2020,04,13,06,21,2.20
2020,04,13,06,22,2.20
2020,04,13,06,23,2.20
2020,04,13,06,24,2.20
2020,04,13,06,25,2.20
2020,04,13,06,26,2.10
2020,04,13,06,27,2.10
2020,04,13,06,28,2.10
2020,04,13,06,29,2.10
2020,04,13,06,30,2.10
2020,04,13,06,31,2.10
2020,04,13,06,32,2.10
2020,04,13,06,33,2.10
2020,04,13,06,34,2.10
2020,04,13,06,35,2.10
2020,04,13,06,36,2.10
2020,04,13,06,37,2.10
2020,04,13,06,38,2.10
2020,04,13,06,39,2.10
2020,04,13,06,40,2.10
2020,04,13,06,41,2.10
2020,04,13,06,42,2.10
2020,04,13,06,43,2.10
2020,04,13,06,44,2.10
2020,04,13,06,45,2.10
2020,04,13,06,46,2.10
2020,04,13,06,47,2.10
2020,04,13,06,48,2.10
2020,04,13,06,49,2.10
2020,04,13,06,50,2.10
2020,04,13,06,51,2.10
2020,04,13,06,52,2.10
2020,04,13,06,53,2.10
2020,04,13,06,54,2.10
2020,04,13,06,55,2.10
2020,04,13,06,56,2.10
2020,04,13,06,57,2.10
2020,04,13,06,58,2.10
2020,04,13,06,59,2.10
2020,04,13,07,00,2.10
2020,04,13,07,01,2.10
2020,04,13,07,02,2.10
2020,04,13,07,03,2.10
2020,04,13,07,04,2.10
2020,04,13,07,05,2.10
2020,04,13,07,06,2.10
2020,04,13,07,07,2.10
2020,04,13,07,08,2.10
2020,04,13,07,09,2.20
2020,04,13,07,10,2.20
2020,04,13,07,11,2.20
2020,04,13,07,12,2.20
2020,04,13,07,13,2.30
2020,04,13,07,14,2.30
2020,04,13,07,15,2.30
2020,04,13,07,16,2.30
2020,04,13,07,17,2.30
2020,04,13,07,18,2.40
2020,04,13,07,19,2.40
2020,04,13,07,20,2.40
2020,04,13,07,21,2.40
2020,04,13,07,22,2.50
2020,04,13,07,23,2.50
2020,04,13,07,24,2.50
2020,04,13,07,25,2.50
2020,04,13,07,26,2.60
2020,04,13,07,27,2.60
2020,04,13,07,28,2.60
2020,04,13,07,29,2.60
2020,04,13,07,30,2.60
2020,04,13,07,31,2.70
2020,04,13,07,32,2.70
2020,04,13,07,33,2.70
2020,04,13,07,34,2.70
2020,04,13,07,35,2.80
2020,04,13,07,36,2.80
2020,04,13,07,37,2.80
2020,04,13,07,38,2.80
2020,04,13,07,39,2.90
2020,04,13,07,40,2.90
2020,04,13,07,41,2.90
2020,04,13,07,42,2.90
2020,04,13,07,43,2.90
2020,04,13,07,44,2.90
2020,04,13,07,45,3.00
2020,04,13,07,46,3.00
2020,04,13,07,47,3.00
2020,04,13,07,48,3.10
2020,04,13,07,49,3.10
2020,04,13,07,50,3.20
2020,04,13,07,51,3.20
2020,04,13,07,52,3.20
2020,04,13,07,53,3.30
2020,04,13,07,54,3.30
2020,04,13,07,55,3.30
2020,04,13,07,56,3.40
2020,04,13,07,57,3.40
2020,04,13,07,58,3.50
2020,04,13,07,59,3.60
2020,04,13,08,00,3.60
2020,04,13,08,01,3.70
2020,04,13,08,02,3.70
2020,04,13,08,03,3.80
2020,04,13,08,04,3.90
2020,04,13,08,05,3.90
2020,04,13,08,06,4.00
2020,04,13,08,07,4.10
2020,04,13,08,08,4.20
2020,04,13,08,09,4.30
2020,04,13,08,10,4.30
2020,04,13,08,11,4.40
2020,04,13,08,12,4.50
2020,04,13,08,13,4.50
2020,04,13,08,14,4.60
2020,04,13,08,15,4.70
2020,04,13,08,16,4.70
2020,04,13,08,17,4.80
2020,04,13,08,18,4.80
2020,04,13,08,19,4.90
2020,04,13,08,20,5.00
2020,04,13,08,21,5.00
2020,04,13,08,22,5.10
2020,04,13,08,23,5.20
2020,04,13,08,24,5.30
2020,04,13,08,25,5.30
2020,04,13,08,26,5.40
2020,04,13,08,27,5.40
2020,04,13,08,28,5.50
2020,04,13,08,29,5.60
2020,04,13,08,30,5.70
2020,04,13,08,31,5.80
2020,04,13,08,32,5.90
2020,04,13,08,33,5.90
2020,04,13,08,34,6.00
2020,04,13,08,35,6.20
2020,04,13,08,36,6.30
2020,04,13,08,37,6.40
2020,04,13,08,38,6.50
2020,04,13,08,39,6.70
2020,04,13,08,40,6.90
2020,04,13,08,41,7.10
2020,04,13,08,42,7.30
2020,04,13,08,43,7.50
2020,04,13,08,44,7.80
2020,04,13,08,45,8.00
2020,04,13,08,46,8.20
2020,04,13,08,47,8.30
2020,04,13,08,48,8.50
2020,04,13,08,49,8.60
2020,04,13,08,50,8.70
2020,04,13,08,51,8.80
2020,04,13,08,52,8.90
2020,04,13,08,53,9.00
2020,04,13,08,54,9.10
2020,04,13,08,55,9.20
2020,04,13,08,56,9.20
2020,04,13,08,57,9.30
2020,04,13,08,58,9.30
2020,04,13,08,59,9.30
2020,04,13,09,00,9.40
2020,04,13,09,01,9.40
2020,04,13,09,02,9.50
2020,04,13,09,03,9.50
2020,04,13,09,04,9.60
2020,04,13,09,05,9.60
2020,04,13,09,06,9.60
2020,04,13,09,07,9.70
2020,04,13,09,08,9.70
2020,04,13,09,09,9.70
2020,04,13,09,10,9.70
2020,04,13,09,11,9.80
2020,04,13,09,12,9.80
2020,04,13,09,13,9.80
2020,04,13,09,14,9.80
2020,04,13,09,15,9.80
2020,04,13,09,16,9.80
2020,04,13,09,17,9.80
2020,04,13,09,18,9.80
2020,04,13,09,19,9.80
2020,04,13,09,20,9.90
2020,04,13,09,21,9.90
2020,04,13,09,22,9.90
2020,04,13,09,23,9.90
2020,04,13,09,24,9.90
2020,04,13,09,25,9.90
2020,04,13,09,26,9.90
2020,04,13,09,27,9.90
2020,04,13,09,28,10.00
2020,04,13,09,29,10.00
2020,04,13,09,30,10.00
2020,04,13,09,31,10.10
2020,04,13,09,32,10.10
2020,04,13,09,33,10.10
2020,04,13,09,34,10.10
2020,04,13,09,35,10.10
2020,04,13,09,36,10.10
2020,04,13,09,37,10.10
2020,04,13,09,38,10.20
2020,04,13,09,39,10.20
2020,04,13,09,40,10.20
2020,04,13,09,41,10.20
2020,04,13,09,42,10.20
2020,04,13,09,43,10.20
2020,04,13,09,44,10.30
2020,04,13,09,45,10.30
2020,04,13,09,46,10.20
2020,04,13,09,47,10.20
2020,04,13,09,48,10.20
2020,04,13,09,49,10.20
2020,04,13,09,50,10.20
2020,04,13,09,51,10.20
2020,04,13,09,52,10.20
2020,04,13,09,53,10.20
2020,04,13,09,54,10.20
2020,04,13,09,55,10.20
2020,04,13,09,56,10.20
2020,04,13,09,57,10.20
2020,04,13,09,58,10.20
2020,04,13,09,59,10.20
2020,04,13,10,00,10.20
2020,04,13,10,01,10.20
2020,04,13,10,02,10.20
2020,04,13,10,03,10.20
2020,04,13,10,04,10.20
2020,04,13,10,05,10.20
2020,04,13,10,06,10.30
2020,04,13,10,07,10.30
2020,04,13,10,08,10.20
2020,04,13,10,09,10.20
2020,04,13,10,10,10.20
2020,04,13,10,11,10.20
2020,04,13,10,12,10.20
2020,04,13,10,13,10.20
2020,04,13,10,14,10.10
2020,04,13,10,15,10.00
2020,04,13,10,16,10.00
2020,04,13,10,17,9.90
2020,04,13,10,18,9.90
2020,04,13,10,19,9.80
2020,04,13,10,20,9.80
2020,04,13,10,21,9.80
2020,04,13,10,22,9.80
2020,04,13,10,23,9.80
2020,04,13,10,24,9.80
2020,04,13,10,25,9.80
2020,04,13,10,26,9.80
2020,04,13,10,27,9.80
2020,04,13,10,28,9.80
2020,04,13,10,29,9.80
2020,04,13,10,30,9.80
2020,04,13,10,31,9.80
2020,04,13,10,32,9.80
2020,04,13,10,33,9.80
2020,04,13,10,34,9.70
2020,04,13,10,35,9.70
2020,04,13,10,36,9.70
2020,04,13,10,37,9.80
2020,04,13,10,38,9.80
2020,04,13,10,39,9.90
2020,04,13,10,40,10.00
2020,04,13,10,41,10.00
2020,04,13,10,42,10.10
2020,04,13,10,43,10.10
2020,04,13,10,44,10.20
2020,04,13,10,45,10.20
2020,04,13,10,46,10.20
2020,04,13,10,47,10.20
2020,04,13,10,48,10.20
2020,04,13,10,49,10.20
2020,04,13,10,50,10.20
2020,04,13,10,51,10.20
2020,04,13,10,52,10.20
2020,04,13,10,53,10.30
2020,04,13,10,54,10.20
2020,04,13,10,55,10.20
2020,04,13,10,56,10.20
2020,04,13,10,57,10.10
2020,04,13,10,58,10.10
2020,04,13,10,59,10.00
2020,04,13,11,00,10.00
2020,04,13,11,01,10.00
2020,04,13,11,02,9.90
2020,04,13,11,03,9.90
2020,04,13,11,04,9.90
2020,04,13,11,05,9.90
2020,04,13,11,06,9.90
2020,04,13,11,07,9.90
2020,04,13,11,08,9.90
2020,04,13,11,09,9.90
2020,04,13,11,10,9.90
2020,04,13,11,11,9.90
2020,04,13,11,12,9.90
2020,04,13,11,13,9.90
2020,04,13,11,14,9.80
2020,04,13,11,15,9.80
2020,04,13,11,16,9.80
2020,04,13,11,17,9.80
2020,04,13,11,18,9.80
2020,04,13,11,19,9.80
2020,04,13,11,20,9.80
2020,04,13,11,21,9.80
2020,04,13,11,22,9.80
2020,04,13,11,23,9.80
2020,04,13,11,24,9.70
2020,04,13,11,25,9.70
2020,04,13,11,26,9.70
2020,04,13,11,27,9.70
2020,04,13,11,28,9.70
2020,04,13,11,29,9.70
2020,04,13,11,30,9.70
2020,04,13,11,31,9.80
2020,04,13,11,32,9.80
2020,04,13,11,33,9.80
2020,04,13,11,34,9.80
2020,04,13,11,35,9.80
2020,04,13,11,36,9.80
2020,04,13,11,37,9.80
2020,04,13,11,38,9.80
2020,04,13,11,39,9.80
2020,04,13,11,40,9.80
2020,04,13,11,41,9.80
2020,04,13,11,42,9.90
2020,04,13,11,43,9.90
2020,04,13,11,44,9.90
2020,04,13,11,45,9.90
2020,04,13,11,46,9.90
2020,04,13,11,47,10.00
2020,04,13,11,48,10.00
2020,04,13,11,49,10.00
2020,04,13,11,50,10.00
2020,04,13,11,51,10.00
2020,04,13,11,52,10.00
2020,04,13,11,53,10.00
2020,04,13,11,54,10.10
2020,04,13,11,55,10.10
2020,04,13,11,56,10.10
2020,04,13,11,57,10.10
2020,04,13,11,58,10.20
2020,04,13,11,59,10.20
2020,04,13,12,00,10.20
2020,04,13,12,01,10.20
2020,04,13,12,02,10.20
2020,04,13,12,03,10.20
2020,04,13,12,04,10.20
2020,04,13,12,05,10.20
2020,04,13,12,06,10.20
2020,04,13,12,07,10.20
2020,04,13,12,08,10.20
2020,04,13,12,09,10.30
2020,04,13,12,10,10.30
2020,04,13,12,11,10.30
2020,04,13,12,12,10.30
2020,04,13,12,13,10.40
2020,04,13,12,14,10.40
2020,04,13,12,15,10.40
2020,04,13,12,16,10.50
2020,04,13,12,17,10.50
2020,04,13,12,18,10.50
2020,04,13,12,19,10.60
2020,04,13,12,20,10.60
2020,04,13,12,21,10.60
2020,04,13,12,22,10.60
2020,04,13,12,23,10.60
2020,04,13,12,24,10.70
2020,04,13,12,25,10.70
2020,04,13,12,26,10.70
2020,04,13,12,27,10.80
2020,04,13,12,28,10.80
2020,04,13,12,29,10.80
2020,04,13,12,30,10.70
2020,04,13,12,31,10.70
2020,04,13,12,32,10.70
2020,04,13,12,33,10.70
2020,04,13,12,34,10.60
2020,04,13,12,35,10.60
2020,04,13,12,36,10.60
2020,04,13,12,37,10.60
2020,04,13,12,38,10.60
2020,04,13,12,39,10.60
2020,04,13,12,40,10.60
2020,04,13,12,41,10.60
2020,04,13,12,42,10.60
2020,04,13,12,43,10.50
2020,04,13,12,44,10.50
2020,04,13,12,45,10.50
2020,04,13,12,46,10.50
2020,04,13,12,47,10.60
2020,04,13,12,48,10.60
2020,04,13,12,49,10.60
2020,04,13,12,50,10.60
2020,04,13,12,51,10.60
2020,04,13,12,52,10.60
2020,04,13,12,53,10.60
2020,04,13,12,54,10.60
2020,04,13,12,55,10.60
2020,04,13,12,56,10.60
2020,04,13,12,57,10.60
2020,04,13,12,58,10.60
2020,04,13,12,59,10.60
2020,04,13,13,00,10.60
2020,04,13,13,01,10.60
2020,04,13,13,02,10.50
2020,04,13,13,03,10.50
2020,04,13,13,04,10.50
2020,04,13,13,05,10.50
2020,04,13,13,06,10.40
2020,04,13,13,07,10.40
2020,04,13,13,08,10.40
2020,04,13,13,09,10.40
2020,04,13,13,10,10.40
2020,04,13,13,11,10.40
2020,04,13,13,12,10.40
2020,04,13,13,13,10.40
2020,04,13,13,14,10.40
2020,04,13,13,15,10.40
2020,04,13,13,16,10.50
2020,04,13,13,17,10.50
2020,04,13,13,18,10.50
2020,04,13,13,19,10.60
2020,04,13,13,20,10.60
2020,04,13,13,21,10.60
2020,04,13,13,22,10.60
2020,04,13,13,23,10.60
2020,04,13,13,24,10.60
2020,04,13,13,25,10.60
2020,04,13,13,26,10.60
2020,04,13,13,27,10.70
2020,04,13,13,28,10.70
2020,04,13,13,29,10.70
2020,04,13,13,30,10.70
2020,04,13,13,31,10.60
2020,04,13,13,32,10.60
2020,04,13,13,33,10.60
2020,04,13,13,34,10.60
2020,04,13,13,35,10.60
2020,04,13,13,36,10.60
2020,04,13,13,37,10.70
2020,04,13,13,38,10.70
2020,04,13,13,39,10.70
2020,04,13,13,40,10.70
2020,04,13,13,41,10.70
2020,04,13,13,42,10.60
2020,04,13,13,43,10.60
2020,04,13,13,44,10.70
2020,04,13,13,45,10.70
2020,04,13,13,46,10.70
2020,04,13,13,47,10.70
2020,04,13,13,48,10.70
2020,04,13,13,49,10.70
2020,04,13,13,50,10.80
2020,04,13,13,51,10.80
2020,04,13,13,52,10.80
2020,04,13,13,53,10.80
2020,04,13,13,54,10.80
2020,04,13,13,55,10.90
2020,04,13,13,56,10.90
2020,04,13,13,57,10.80
2020,04,13,13,58,10.80
2020,04,13,13,59,10.80
2020,04,13,14,00,10.80
2020,04,13,14,01,10.80
2020,04,13,14,02,10.80
2020,04,13,14,03,10.80
2020,04,13,14,04,10.80
2020,04,13,14,05,10.80
2020,04,13,14,06,10.80
2020,04,13,14,07,10.80
2020,04,13,14,08,10.90
2020,04,13,14,09,10.90
2020,04,13,14,10,11.00
2020,04,13,14,11,11.00
2020,04,13,14,12,11.10
2020,04,13,14,13,11.10
2020,04,13,14,14,11.10
2020,04,13,14,15,11.10
2020,04,13,14,16,11.10
2020,04,13,14,17,11.00
2020,04,13,14,18,11.00
2020,04,13,14,19,11.10
2020,04,13,14,20,11.10
2020,04,13,14,21,11.10
2020,04,13,14,22,11.10
2020,04,13,14,23,11.10
2020,04,13,14,24,11.10
2020,04,13,14,25,11.10
2020,04,13,14,26,11.10
2020,04,13,14,27,11.10
2020,04,13,14,28,11.10
2020,04,13,14,29,11.10
2020,04,13,14,30,11.10
2020,04,13,14,31,11.10
2020,04,13,14,32,11.10
2020,04,13,14,33,11.10
2020,04,13,14,34,11.20
2020,04,13,14,35,11.20
2020,04,13,14,36,11.20
2020,04,13,14,37,11.20
2020,04,13,14,38,11.20
2020,04,13,14,39,11.20
2020,04,13,14,40,11.20
2020,04,13,14,41,11.20
2020,04,13,14,42,11.20
2020,04,13,14,43,11.20
2020,04,13,14,44,11.20
2020,04,13,14,45,11.20
2020,04,13,14,46,11.20
2020,04,13,14,47,11.20
2020,04,13,14,48,11.20
2020,04,13,14,49,11.20
2020,04,13,14,50,11.20
2020,04,13,14,51,11.20
2020,04,13,14,52,11.20
2020,04,13,14,53,11.20
2020,04,13,14,54,11.10
2020,04,13,14,55,11.20
2020,04,13,14,56,11.20
2020,04,13,14,57,11.20
2020,04,13,14,58,11.20
2020,04,13,14,59,11.20
2020,04,13,15,00,11.20
2020,04,13,15,01,11.30
2020,04,13,15,02,11.30
2020,04,13,15,03,11.30
2020,04,13,15,04,11.30
2020,04,13,15,05,11.30
2020,04,13,15,06,11.30
2020,04,13,15,07,11.30
2020,04,13,15,08,11.30
2020,04,13,15,09,11.30
2020,04,13,15,10,11.30
2020,04,13,15,11,11.40
2020,04,13,15,12,11.30
2020,04,13,15,13,11.40
2020,04,13,15,14,11.40
2020,04,13,15,15,11.40
2020,04,13,15,16,11.40
2020,04,13,15,17,11.40
2020,04,13,15,18,11.40
2020,04,13,15,19,11.40
2020,04,13,15,20,11.40
2020,04,13,15,21,11.40
2020,04,13,15,22,11.40
2020,04,13,15,23,11.40
2020,04,13,15,24,11.40
2020,04,13,15,25,11.50
2020,04,13,15,26,11.50
2020,04,13,15,27,11.50
2020,04,13,15,28,11.60
2020,04,13,15,29,11.60
2020,04,13,15,30,11.60
2020,04,13,15,31,11.70
2020,04,13,15,32,11.70
2020,04,13,15,33,11.80
2020,04,13,15,34,11.80
2020,04,13,15,35,11.80
2020,04,13,15,36,11.90
2020,04,13,15,37,11.90
2020,04,13,15,38,11.90
2020,04,13,15,39,11.90
2020,04,13,15,40,12.00
2020,04,13,15,41,12.00
2020,04,13,15,42,12.00
2020,04,13,15,43,12.00
2020,04,13,15,44,12.00
2020,04,13,15,45,12.00
2020,04,13,15,46,11.90
2020,04,13,15,47,12.00
2020,04,13,15,48,12.00
2020,04,13,15,49,12.00
2020,04,13,15,50,12.10
2020,04,13,15,51,12.10
2020,04,13,15,52,12.10
2020,04,13,15,53,12.20
2020,04,13,15,54,12.20
2020,04,13,15,55,12.30
2020,04,13,15,56,12.30
2020,04,13,15,57,12.40
2020,04,13,15,58,12.50
2020,04,13,15,59,12.60
2020,04,13,16,00,12.70
2020,04,13,16,01,12.80
2020,04,13,16,02,12.90
2020,04,13,16,03,12.90
2020,04,13,16,04,13.00
2020,04,13,16,05,13.10
2020,04,13,16,06,13.10
2020,04,13,16,07,13.20
2020,04,13,16,08,13.30
2020,04,13,16,09,13.30
2020,04,13,16,10,13.40
2020,04,13,16,11,13.50
2020,04,13,16,12,13.60
2020,04,13,16,13,13.60
2020,04,13,16,14,13.60
2020,04,13,16,15,13.60
2020,04,13,16,16,13.60
2020,04,13,16,17,13.60
2020,04,13,16,18,13.60
2020,04,13,16,19,13.70
2020,04,13,16,20,13.70
2020,04,13,16,21,13.70
2020,04,13,16,22,13.70
2020,04,13,16,23,13.70
2020,04,13,16,24,13.70
2020,04,13,16,25,13.60
2020,04,13,16,26,13.60
2020,04,13,16,27,13.60
2020,04,13,16,28,13.70
2020,04,13,16,29,13.70
2020,04,13,16,30,13.70
2020,04,13,16,31,13.60
2020,04,13,16,32,13.50
2020,04,13,16,33,13.50
2020,04,13,16,34,13.40
2020,04,13,16,35,13.40
2020,04,13,16,36,13.30
2020,04,13,16,37,13.30
2020,04,13,16,38,13.30
2020,04,13,16,39,13.20
2020,04,13,16,40,13.10
2020,04,13,16,41,13.10
2020,04,13,16,42,13.00
2020,04,13,16,43,13.00
2020,04,13,16,44,12.90
2020,04,13,16,45,12.80
2020,04,13,16,46,12.70
2020,04,13,16,47,12.70
2020,04,13,16,48,12.70
2020,04,13,16,49,12.60
2020,04,13,16,50,12.60
2020,04,13,16,51,12.60
2020,04,13,16,52,12.60
2020,04,13,16,53,12.70
2020,04,13,16,54,12.60
2020,04,13,16,55,12.70
2020,04,13,16,56,12.60
2020,04,13,16,57,12.60
2020,04,13,16,58,12.70
2020,04,13,16,59,12.70
2020,04,13,17,00,12.70
2020,04,13,17,01,12.60
2020,04,13,17,02,12.60
2020,04,13,17,03,12.60
2020,04,13,17,04,12.60
2020,04,13,17,05,12.50
2020,04,13,17,06,12.50
2020,04,13,17,07,12.40
2020,04,13,17,08,12.40
2020,04,13,17,09,12.40
2020,04,13,17,10,12.40
2020,04,13,17,11,12.30
2020,04,13,17,12,12.30
2020,04,13,17,13,12.30
2020,04,13,17,14,12.30
2020,04,13,17,15,12.30
2020,04,13,17,16,12.40
2020,04,13,17,17,12.40
2020,04,13,17,18,12.40
2020,04,13,17,19,12.40
2020,04,13,17,20,12.40
2020,04,13,17,21,12.50
2020,04,13,17,22,12.50
2020,04,13,17,23,12.50
2020,04,13,17,24,12.50
2020,04,13,17,25,12.50
2020,04,13,17,26,12.50
2020,04,13,17,27,12.50
2020,04,13,17,28,12.50
2020,04,13,17,29,12.50
2020,04,13,17,30,12.50
2020,04,13,17,31,12.50
2020,04,13,17,32,12.50
2020,04,13,17,33,12.40
2020,04,13,17,34,12.50
2020,04,13,17,35,12.40
2020,04,13,17,36,12.40
2020,04,13,17,37,12.40
2020,04,13,17,38,12.40
2020,04,13,17,39,12.40
2020,04,13,17,40,12.40
2020,04,13,17,41,12.40
2020,04,13,17,42,12.40
2020,04,13,17,43,12.30
2020,04,13,17,44,12.30
2020,04,13,17,45,12.20
2020,04,13,17,46,12.20
2020,04,13,17,47,12.20